| time (UTC) | temp F | wind direction | speed knots | gust knots | rain 1hr in | rain 24hr in | rain mn in | humidity % | barometer mb |
| 20260504044531 | 59 | 198 | 1.7 | 3.5 | 0.00 | 0.00 | 0.00 | 58 | 1011.7 |
| 20260504043032 | 60 | 154 | 2.6 | 4.3 | 0.00 | 0.00 | 0.00 | 58 | 1011.6 |
| 20260504041531 | 61 | 135 | 2.6 | 3.5 | 0.00 | 0.00 | 0.00 | 58 | 1011.4 |
| 20260504040039 | 61 | 105 | 2.6 | 5.2 | 0.00 | 0.00 | 0.00 | 57 | 1011.2 |
| 20260504034531 | 63 | 209 | 0.0 | 2.6 | 0.00 | 0.00 | 0.00 | 53 | 1011.0 |
| 20260504033103 | 65 | 190 | 0.9 | 3.5 | 0.00 | 0.00 | 0.00 | 50 | 1010.8 |
| 20260504031532 | 68 | 157 | 2.6 | 5.2 | 0.00 | 0.00 | 0.00 | 48 | 1010.6 |
| 20260504030033 | 71 | 211 | 0.9 | 3.5 | 0.00 | 0.00 | 0.00 | 46 | 1010.5 |
| 20260504024530 | 74 | 247 | 1.7 | 3.5 | 0.00 | 0.00 | 0.00 | 40 | 1010.4 |
| 20260504023147 | 78 | 278 | 0.9 | 3.5 | 0.00 | 0.00 | 0.00 | 35 | 1010.4 |
| 20260504021647 | 80 | 337 | 0.0 | 1.7 | 0.00 | 0.00 | 0.00 | 31 | 1010.5 |
| 20260504020107 | 81 | 349 | 0.9 | 3.5 | 0.00 | 0.00 | 0.00 | 28 | 1010.7 |
| 20260504014532 | 82 | 333 | 1.7 | 5.2 | 0.00 | 0.00 | 0.00 | 28 | 1010.8 |
| 20260504013028 | 83 | 329 | 1.7 | 4.3 | 0.00 | 0.00 | 0.00 | 28 | 1010.9 |
| 20260504011538 | 85 | 323 | 1.7 | 4.3 | 0.00 | 0.00 | 0.00 | 25 | 1011.2 |
| 20260504004526 | 85 | 346 | 1.7 | 4.3 | 0.00 | 0.00 | 0.00 | 25 | 1011.3 |
| 20260504003032 | 85 | 17 | 2.6 | 7.0 | 0.00 | 0.00 | 0.00 | 25 | 1011.4 |
| 20260504000030 | 86 | 21 | 2.6 | 8.7 | 0.00 | 0.00 | 0.00 | 26 | 1011.6 |
| 20260503234529 | 86 | 19 | 2.6 | 7.8 | 0.00 | 0.00 | 0.00 | 26 | 1011.7 |
| 20260503233033 | 86 | 10 | 2.6 | 8.7 | 0.00 | 0.00 | 0.00 | 25 | 1011.9 |
| 20260503230032 | 85 | 56 | 3.5 | 9.6 | 0.00 | 0.00 | 0.00 | 26 | 1012.3 |
| 20260503224530 | 85 | 62 | 4.3 | 9.6 | 0.00 | 0.00 | 0.00 | 26 | 1012.6 |
| 20260503223033 | 85 | 34 | 4.3 | 9.6 | 0.00 | 0.00 | 0.00 | 28 | 1012.8 |
| 20260503221528 | 84 | 26 | 4.3 | 9.6 | 0.00 | 0.00 | 0.00 | 28 | 1013.0 |
| 20260503220107 | 84 | 27 | 4.3 | 12.2 | 0.00 | 0.00 | 0.00 | 28 | 1013.2 |
| 20260503214531 | 83 | 40 | 4.3 | 10.4 | 0.00 | 0.00 | 0.00 | 29 | 1013.4 |
| 20260503213029 | 81 | 42 | 5.2 | 13.0 | 0.00 | 0.00 | 0.00 | 29 | 1013.5 |
| 20260503211529 | 81 | 30 | 6.1 | 12.2 | 0.00 | 0.00 | 0.00 | 29 | 1013.7 |
| 20260503210031 | 82 | 52 | 4.3 | 10.4 | 0.00 | 0.00 | 0.00 | 29 | 1014.0 |
| 20260503203031 | 82 | 92 | 4.3 | 10.4 | 0.00 | 0.00 | 0.00 | 28 | 1014.3 |
| 20260503201608 | 82 | 76 | 4.3 | 10.4 | 0.00 | 0.00 | 0.00 | 28 | 1014.5 |
| 20260503200033 | 83 | 66 | 4.3 | 12.2 | 0.00 | 0.00 | 0.00 | 28 | 1014.6 |
| 20260503194530 | 83 | 81 | 4.3 | 10.4 | 0.00 | 0.00 | 0.00 | 28 | 1014.8 |
| 20260503193030 | 84 | 85 | 6.1 | 14.8 | 0.00 | 0.00 | 0.00 | 27 | 1014.9 |
| 20260503191532 | 85 | 97 | 3.5 | 12.2 | 0.00 | 0.00 | 0.00 | 28 | 1015.0 |
| 20260503190029 | 85 | 103 | 3.5 | 8.7 | 0.00 | 0.00 | 0.00 | 29 | 1015.0 |
| 20260503184529 | 83 | 46 | 1.7 | 7.8 | 0.00 | 0.00 | 0.00 | 33 | 1015.2 |
| 20260503183028 | 82 | 359 | 3.5 | 7.8 | 0.00 | 0.00 | 0.00 | 35 | 1015.3 |
| 20260503181530 | 82 | 5 | 1.7 | 6.1 | 0.00 | 0.00 | 0.00 | 36 | 1015.4 |
| 20260503180030 | 81 | 333 | 1.7 | 4.3 | 0.00 | 0.00 | 0.00 | 37 | 1015.6 |
| 20260503174531 | 81 | 356 | 0.0 | 2.6 | 0.00 | 0.00 | 0.00 | 37 | 1015.7 |
| 20260503171529 | 79 | 25 | 0.0 | 3.5 | 0.00 | 0.00 | 0.00 | 39 | 1015.9 |
| 20260503071531 | 51 | 202 | 1.7 | 3.5 | 0.00 | 0.00 | 0.00 | 80 | 1016.3 |
| 20260503070107 | 52 | 144 | 0.9 | 2.6 | 0.00 | 0.00 | 0.00 | 77 | 1016.3 |